Weather in Luchegorsk

Russia / Primorsky Krai     46°26′42″N   134°17′47″E
temp.,
°C
wind,
m/s
gust,
m/s
humid.,
%
clouds,
%
prec.,
mm/h
press.,
hPa
HPBL,
m
6 august, fri
fri601:00+23sse127595 0.1 100122
04:00+21ssw2295100 1.6 100235
07:00+21sse1195100 0.8 100270
10:00+23ssw2490100 0.8 1003394
13:00+26s357199 0.0 1003783
16:00+27sse556595 0.0 1001588
19:00+25se1174100 0.1 100153
22:00+23sse2585100 0.1 1002153
7 august, sat
sat701:00+21s2290100 0.0 100335
04:00+20sw1196100 0.2 100316
07:00+20sw2298100 1.2 100493
10:00+20sw1298100 3.1 1004116
13:00+24sw3586100 1.4 1004795
16:00+24nw357320 3.4 1005766
19:00+25nw246737 0.0 1005767
22:00+18n36943 0.0 1007143
8 august, sun
sun801:00+15n349710 0.0 1008101
04:00+14n259863 0.0 1008121
07:00+15n3693100 0.0 1010283
10:00+19n4473100 0.0 1010592
13:00+23n4461100 0.0 1010955
16:00+23n5562100 0.0 1009923
19:00+20nnw477096 0.0 1010520
22:00+15n4785100 0.0 1011239
9 august, mon
mon901:00+16n4771100 0.0 1011338
04:00+16nne3763100 0.0 1011438
07:00+16nne4861100 0.0 1011552
10:00+17ene81362100 0.0 1011781
13:00+19ene71057100 0.0 10111020
16:00+18e7960100 0.0 1011779
19:00+16ene51066100 0.0 1011451
22:00+15ene4106989 0.0 1012493
10 august, tue
tue1001:00+15ne51169100 0.0 1012575
04:00+12ne4980100 0.0 1012366
07:00+13nne37870 0.0 1013229
10:00+19ene69561 0.0 10121201
13:00+22ene684689 0.0 10111868
16:00+20ne78515 0.0 10121108
19:00+17ene7116023 0.0 1012916
22:00+15ene6115997 0.0 1013700